Dewpoint
24 25 26 25 24 24 23 23 23 22 22 23 25 26 25 27 30 34 35 32 30 28 25 22 19 17 15 15 14 11 10 11 11 12 13 13 14 15 15 16 16 16 17 17
27 27 27 26 25 25 24 24 23 23 23 25 26 26 26 26 28 33 33 30 28 25 22 19 17 15 15 14 12 11 10 11 12 13 13 14 15 15 15 16 16 17 17 17
24 25 28 26 27 26 26 25 24 23 24 26 26 26 27 27 28 31 32 29 26 23 19 17 16 14 13 11 11 11 11 11 12 12 14 14 15 15 15 16 16 16 17 18
30 26 23 22 27 28 27 26 26 25 26 28 28 28 28 28 28 29 29 27 24 20 17 15 13 13 11 12 11 11 11 11 12 13 14 15 15 15 16 16 16 17 18 19
29 26 24 22 26 28 28 28 28 27 26 27 28 26 26 28 29 29 27 24 20 17 14 13 11 10 10 11 11 11 11 11 12 14 14 15 15 15 16 16 17 18 18 18
32 28 24 23 25 29 31 26 30 31 29 29 26 27 29 26 28 26 24 20 16 14 12 9 8 8 8 9 10 10 11 12 13 14 14 15 15 15 17 17 17 17 18 19
30 30 25 25 27 29 23 23 28 29 31 31 28 27 24 25 22 20 17 14 13 11 8 7 7 8 9 9 10 11 12 13 13 14 14 15 15 17 17 17 17 19 19 19
30 29 26 28 27 25 26 25 27 29 30 28 22 20 19 17 15 14 13 13 10 8 8 8 8 8 9 9 11 12 13 13 13 14 14 15 17 17 17 18 21 20 20 20
29 27 29 28 29 29 27 28 26 29 28 22 19 17 15 14 13 13 11 9 9 8 8 8 8 8 8 10 11 12 13 14 14 14 15 17 17 18 19 20 20 20 19 20
30 33 30 29 27 25 25 26 26 28 25 21 18 15 14 13 13 11 9 8 8 7 7 8 8 9 9 11 12 13 15 16 16 16 19 17 18 18 20 20 20 19 20 21
28 28 32 31 28 25 25 25 25 25 22 20 16 14 13 13 11 9 8 8 8 7 8 8 9 10 11 12 13 14 15 16 18 18 19 20 20 20 21 20 21 23 23 24
23 26 30 34 30 30 26 25 24 22 21 19 17 15 14 12 10 8 8 8 8 8 8 9 10 11 12 13 14 15 15 16 18 19 19 20 20 20 21 21 23 23 23 23
27 28 28 29 26 27 28 26 25 24 20 18 16 15 13 10 9 13 9 8 8 8 9 10 11 11 13 14 15 15 16 18 18 18 19 19 19 19 18 19 22 22 23 24
24 29 32 29 28 25 24 24 23 21 20 18 16 15 12 12 12 10 9 8 9 9 10 11 11 12 14 15 15 15 15 17 18 18 18 19 18 19 19 19 18 19 21 23
23 26 27 28 27 25 23 22 20 19 19 19 18 18 17 17 17 13 10 9 8 9 11 12 11 12 14 15 15 14 14 16 18 18 17 18 19 19 18 18 19 19 19 21
22 24 24 24 23 24 23 21 19 19 19 19 18 18 18 17 16 12 10 9 10 10 12 12 12 13 15 16 14 13 14 16 18 16 16 17 18 18 17 17 18 19 18 20
19 21 21 21 21 21 20 21 19 19 18 17 16 17 16 15 12 10 10 9 10 12 13 13 13 15 16 15 14 14 14 14 17 16 16 18 18 17 18 18 18 18 19 21
21 22 22 19 17 17 17 18 18 17 15 16 16 15 14 13 11 11 10 10 10 11 13 15 15 15 15 16 15 13 13 14 15 15 16 17 18 17 18 18 18 18 19 20
18 17 18 18 18 16 16 15 16 16 16 16 15 14 14 13 11 11 11 9 8 9 11 14 15 13 13 16 13 12 14 14 15 15 16 17 17 18 18 18 18 18 19 19
16 16 16 16 16 15 14 15 15 15 15 15 14 13 11 9 10 10 10 9 11 12 15 15 12 12 13 14 13 12 13 14 14 15 16 16 17 17 17 18 17 18 18 20
14 15 14 14 14 15 15 16 15 14 15 15 13 11 10 10 11 10 8 7 10 13 15 14 12 12 13 12 12 12 13 13 14 14 14 14 15 15 15 16 16 17 17 20
13 13 13 13 12 12 14 15 14 14 13 11 10 8 7 7 8 9 11 11 12 13 14 14 15 14 13 12 12 12 12 12 13 13 13 13 13 13 13 14 15 15 17 19
11 11 11 10 10 10 11 12 13 12 11 10 10 9 9 8 8 8 8 12 12 13 14 17 15 13 11 10 10 10 11 11 12 12 11 13 12 12 13 13 14 14 16 19
11 11 11 12 11 10 8 9 10 10 9 9 9 10 10 8 8 10 14 15 13 12 14 16 14 11 9 9 8 8 9 9 12 11 9 12 10 10 11 12 11 14 16 18
12 12 12 11 10 9 9 10 10 10 10 9 8 8 9 9 11 9 10 11 13 9 11 13 12 8 7 7 7 6 6 6 9 9 7 6 7 7 9 9 10 15 15 17
11 10 9 9 10 10 11 10 10 11 11 9 9 9 9 9 11 7 8 8 9 9 7 8 8 7 6 7 5 4 4 5 6 6 5 4 4 6 6 6 8 10 13 16
14 13 10 9 10 11 13 12 10 10 11 11 10 10 10 9 9 9 8 7 7 6 6 7 7 7 6 5 4 4 4 4 5 5 2 2 2 3 3 4 6 9 12 15
Lifted_Index
2 2 2 3 3 4 4 4 4 4 4 4 3 3 2 3 4 4 4 4 5 5 6 6 7 8 9 10 11 13 14 15 17 19 20 21 21 20 20 19 19 20 20 20
2 2 2 3 3 4 4 4 4 4 4 4 3 3 3 3 4 4 4 4 5 5 6 6 7 8 9 11 12 14 15 16 18 19 20 20 20 20 19 19 19 19 19 19
2 2 2 3 4 4 4 4 4 4 4 4 3 3 3 4 4 4 4 5 5 6 6 7 8 9 10 12 13 15 16 18 19 20 20 20 20 20 19 19 19 19 19 19
2 2 2 3 4 4 4 4 4 4 4 3 3 3 3 4 4 4 4 5 5 6 7 8 9 10 12 13 14 16 18 19 19 20 20 20 20 19 19 19 18 18 18 18
1 1 2 3 3 3 3 3 3 3 3 3 3 3 3 4 4 5 5 5 6 6 7 9 10 11 12 14 15 17 18 19 20 20 20 20 19 19 19 18 18 18 17 17
1 1 1 2 3 3 3 3 3 3 3 2 3 3 4 4 5 5 5 5 6 7 8 9 11 12 13 14 16 18 19 20 20 20 20 19 19 19 19 18 18 18 17 16
1 1 1 2 2 2 2 2 2 2 3 3 3 4 4 4 5 5 5 5 6 7 8 10 12 13 14 16 18 19 20 20 20 20 20 19 19 19 18 18 18 17 16 14
1 1 1 2 2 1 1 2 2 3 3 3 4 4 4 4 5 5 5 6 7 8 9 11 13 15 16 17 19 20 20 20 20 20 19 19 19 18 18 18 17 16 14 13
1 1 1 1 1 1 1 2 2 3 3 3 4 3 3 4 4 4 5 6 8 9 11 13 15 17 18 19 20 20 20 20 19 19 19 19 18 18 18 17 17 15 13 12
2 2 2 1 1 1 2 2 3 3 3 3 3 3 2 3 3 4 5 7 9 11 12 14 16 19 19 20 21 20 20 19 19 19 19 18 18 18 18 18 17 15 13 12
3 3 3 2 2 2 2 2 3 3 3 2 2 2 2 3 3 4 6 9 11 12 13 15 18 19 20 21 21 20 19 19 19 18 18 18 17 17 18 18 17 15 14 13
4 4 4 3 3 2 2 2 3 2 2 2 3 3 3 3 5 6 8 10 12 13 15 17 19 20 20 21 21 20 19 19 18 18 18 17 17 17 17 17 16 15 14 14
4 4 4 4 3 3 3 3 2 2 2 3 3 4 4 5 7 9 11 12 13 15 17 19 19 20 21 21 20 19 19 18 18 18 18 17 17 16 15 14 14 13 14 14
5 5 5 4 4 3 3 3 2 2 3 3 4 5 6 8 9 11 12 14 16 17 18 19 20 20 20 20 20 19 19 18 18 18 18 18 17 16 15 13 12 12 13 13
5 5 5 5 4 4 3 2 2 3 3 4 5 7 8 10 11 12 14 16 18 18 19 20 20 20 20 20 19 19 19 19 18 18 18 18 17 16 14 13 12 12 13 13
5 5 5 5 5 4 4 3 3 4 4 5 7 9 11 11 12 14 16 18 18 19 19 20 20 20 20 20 19 19 19 19 19 18 18 17 16 15 14 13 13 13 13 13
6 7 7 7 6 6 6 6 6 6 7 8 10 12 13 13 14 15 17 19 19 19 20 20 20 20 20 19 19 19 19 19 19 18 17 17 15 14 13 13 13 13 13 13
10 10 10 10 10 9 9 10 10 10 11 12 13 14 14 14 15 16 18 19 19 19 20 20 20 20 19 19 19 19 19 18 18 17 17 16 15 14 14 13 13 13 13 13
13 13 13 13 13 13 13 13 14 14 14 14 15 15 15 16 17 17 18 18 18 19 19 19 19 19 19 19 19 19 19 18 17 16 15 15 14 14 14 14 14 14 13 13
14 15 15 15 15 15 15 15 16 16 16 16 16 16 16 17 18 18 18 18 18 19 19 19 19 19 19 19 19 19 18 17 16 15 14 14 14 14 14 14 14 14 13 13
15 15 15 15 15 16 16 16 16 16 16 16 16 16 17 17 17 18 17 17 18 19 19 19 19 19 19 19 18 18 17 16 15 15 14 14 14 14 14 14 13 13 13 13
14 14 14 15 15 15 16 16 16 16 16 17 17 17 17 17 17 17 17 18 18 19 19 19 19 19 18 18 17 16 16 15 15 15 15 14 14 14 14 13 13 13 13 13
13 13 14 14 14 14 15 15 16 16 16 16 16 17 16 17 17 17 18 18 19 19 19 19 18 18 17 17 16 15 15 15 15 15 15 15 14 14 14 13 13 13 12 12
13 13 13 14 14 14 14 15 15 16 16 16 17 17 17 17 18 18 18 19 19 18 18 18 17 17 16 16 15 15 15 15 15 15 15 14 14 14 14 13 13 12 12 12
13 13 14 14 14 14 14 15 15 16 16 16 17 17 18 18 18 18 18 18 17 17 17 16 16 16 15 15 15 15 15 15 14 14 14 14 13 13 13 13 13 13 12 12
13 13 14 14 14 15 15 15 15 15 15 15 16 16 17 17 17 17 17 17 16 16 16 16 16 15 15 15 15 15 14 14 14 13 13 13 13 13 13 13 13 13 12 12
13 14 14 14 15 15 15 15 15 15 15 15 15 15 16 16 16 16 16 16 16 16 16 16 16 15 15 15 15 15 14 14 13 13 13 12 12 12 12 12 12 12 12 12